Weather History for KIEN - April, 2014

Change the Weather History Date:

Wednesday, April 16, 2014

  Actual Average Record
Temperature  
Mean Temperature 38 °F 46 °F  
Max Temperature 47 °F 60 °F 77 °F (2006)
Min Temperature 29 °F 31 °F 17 °F (1998)
Degree Days  
Heating Degree Days 27 19  
Month to date heating degree days 414 343  
Since 1 July heating degree days 6829 6581  
Cooling Degree Days 0 0  
Month to date cooling degree days 0 0  
Year to date cooling degree days 0 0  
Moisture  
Dew Point 34 °F    
Average Humidity 75    
Maximum Humidity 92    
Minimum Humidity 57    
Precipitation  
Precipitation 0.46 in 0.07 in 0.62 in (2009)
Month to date precipitation 0.78 0.89  
Year to date precipitation 1.39 2.55  
Sea Level Pressure  
Sea Level Pressure 29.87 in    
Wind  
Wind Speed 11 mph (North)    
Max Wind Speed 22 mph    
Max Gust Speed 29 mph    
Visibility 8 miles    
Events Rain    
T = Trace of Precipitation, MM = Missing Value Source: NWS Daily Summary

Daily Weather History Graph

Daily Weather History Graph

Search for Another Location

Airport or City:

Trip Planner

Search our weather history database for the weather conditions in past years. The results will help you decide how hot, cold, wet, or windy it might be!

Date:

Astronomy

Apr. 16, 2014 Rise Set
Actual Time 6:06 AM MDT 7:33 PM MDT
Civil Twilight 5:36 AM MDT 8:03 PM MDT
Nautical Twilight 5:01 AM MDT 8:39 PM MDT
Astronomical Twilight 4:23 AM MDT 9:17 PM MDT
Moon 9:22 PM MDT (4/16) 6:53 AM MDT (4/16)
Length of Visible Light 14h 26m
Length of Day
13h 27m
Full, 98% of the Moon is Illuminated
Apr 16
Full
Apr 22
Last Quarter
Apr 29
New
May 6
First Quarter
May 14
Full

Hourly Weather History & Observations

Time (MDT) Temp. Windchill Dew Point Humidity Pressure Visibility Wind Dir Wind Speed Gust Speed Precip Events Conditions
12:52 AM 48.0 °F - 35.1 °F 61% 29.55 in 10.0 mi North 19.6 mph 28.8 mph N/A   Overcast
1:52 AM 43.0 °F 38.2 °F 37.0 °F 80% 29.56 in 10.0 mi NNW 8.1 mph - 0.00 in   Mostly Cloudy
2:33 AM 43.0 °F 36.0 °F 37.9 °F 82% 29.60 in 10.0 mi NNW 13.8 mph 20.7 mph N/A   Overcast
2:52 AM 42.1 °F 34.5 °F 37.9 °F 85% 29.57 in 10.0 mi North 15.0 mph 21.9 mph 0.00 in   Overcast
3:52 AM 39.9 °F 31.8 °F 37.0 °F 89% 29.61 in 10.0 mi North 15.0 mph - 0.02 in Rain Light Rain
4:19 AM 39.9 °F 32.5 °F 37.9 °F 93% 29.65 in 10.0 mi NNW 12.7 mph 19.6 mph 0.02 in Rain Light Rain
4:33 AM 39.9 °F 33.4 °F 37.0 °F 89% 29.66 in 10.0 mi NNW 10.4 mph - 0.03 in Rain Light Rain
4:52 AM 39.9 °F 33.9 °F 37.0 °F 89% 29.66 in 9.0 mi NW 9.2 mph - 0.04 in Rain Light Rain
5:04 AM 39.9 °F 32.5 °F 37.9 °F 93% 29.68 in 7.0 mi NW 12.7 mph - 0.02 in Rain Rain
5:13 AM 39.9 °F 33.9 °F 37.9 °F 93% 29.69 in 6.0 mi NW 9.2 mph - 0.03 in Rain Light Rain
5:19 AM 39.9 °F 32.5 °F 37.9 °F 93% 29.69 in 6.0 mi WNW 12.7 mph - 0.04 in Rain Rain
5:52 AM 39.0 °F 31.4 °F 37.9 °F 96% 29.70 in 6.0 mi WNW 12.7 mph - 0.10 in Rain Light Rain
6:11 AM 39.9 °F 32.5 °F 37.9 °F 93% 29.72 in 6.0 mi NW 12.7 mph - 0.03 in Rain Rain
6:43 AM 39.9 °F 32.5 °F 37.0 °F 89% 29.74 in 7.0 mi NW 12.7 mph 21.9 mph 0.06 in Rain Light Rain
6:50 AM 39.2 °F 31.2 °F 37.4 °F 93% 29.75 in 6.0 mi NW 13.8 mph 21.9 mph 0.07 in Rain Light Rain
6:52 AM 39.9 °F 32.1 °F 37.0 °F 89% 29.74 in 6.0 mi NW 13.8 mph 21.9 mph 0.07 in Rain Light Rain
7:17 AM 39.9 °F 33.4 °F 37.0 °F 89% 29.76 in 9.0 mi NW 10.4 mph - 0.02 in Rain Light Rain
7:30 AM 39.9 °F 32.9 °F 37.0 °F 89% 29.77 in 6.0 mi NNW 11.5 mph - 0.03 in Rain Light Rain
7:39 AM 39.0 °F 31.4 °F 37.0 °F 93% 29.77 in 5.0 mi NNW 12.7 mph 20.7 mph 0.04 in Rain Light Rain
7:52 AM 39.0 °F 32.8 °F 36.0 °F 89% 29.80 in 4.0 mi North 9.2 mph - 0.05 in Rain Light Rain
8:10 AM 37.9 °F 30.9 °F 36.0 °F 93% 29.80 in 5.0 mi North 10.4 mph - 0.02 in Rain Light Rain
8:24 AM 37.9 °F 30.9 °F 35.1 °F 89% 29.81 in 5.0 mi North 10.4 mph - 0.03 in Rain Light Rain
8:52 AM 37.0 °F 31.0 °F 35.1 °F 93% 29.86 in 5.0 mi North 8.1 mph - 0.07 in Rain Light Rain
9:18 AM 36.0 °F 30.3 °F 34.0 °F 93% 29.84 in 5.0 mi North 6.9 mph - 0.02 in Rain Light Rain
9:29 AM 36.0 °F 30.3 °F 34.0 °F 93% 29.85 in 5.0 mi North 6.9 mph - 0.03 in Rain Light Rain
9:37 AM 36.0 °F 30.3 °F 34.0 °F 93% 29.86 in 5.0 mi North 6.9 mph - 0.04 in Rain Rain
9:52 AM 36.0 °F 29.6 °F 34.0 °F 93% 29.88 in 4.0 mi NW 8.1 mph - 0.05 in Rain Rain
9:54 AM 36.0 °F 28.5 °F 34.0 °F 93% 29.87 in 4.0 mi NW 10.4 mph - 0.01 in Rain Rain
10:17 AM 37.0 °F 30.4 °F 34.0 °F 89% 29.88 in 5.0 mi NNW 9.2 mph - 0.03 in Rain Light Rain
10:47 AM 37.4 °F 28.9 °F 35.6 °F 93% 29.91 in 7.0 mi NNW 13.8 mph 20.7 mph 0.05 in Rain Light Rain
10:52 AM 37.0 °F 28.9 °F 34.0 °F 89% 29.93 in 7.0 mi NNW 12.7 mph - 0.05 in Rain Light Rain
12:00 PM 36.0 °F 28.0 °F 32.0 °F 86% 29.94 in 8.0 mi North 11.5 mph 21.9 mph N/A   Overcast
12:33 PM 37.9 °F 28.2 °F 33.1 °F 83% 29.95 in 10.0 mi North 18.4 mph 21.9 mph 0.00 in   Overcast
12:52 PM 37.9 °F 28.9 °F 32.0 °F 79% 29.99 in 10.0 mi North 16.1 mph 23.0 mph 0.00 in   Overcast
1:52 PM 37.9 °F 30.0 °F 30.9 °F 76% 30.03 in 10.0 mi NNE 12.7 mph - N/A   Overcast
2:52 PM 42.1 °F 34.9 °F 32.0 °F 67% 30.04 in 10.0 mi NNE 13.8 mph - N/A   Overcast
3:52 PM 43.0 °F 37.7 °F 30.9 °F 62% 30.04 in 10.0 mi North 9.2 mph - N/A   Scattered Clouds
4:52 PM 42.1 °F 36.6 °F 30.0 °F 62% 30.06 in 10.0 mi NNE 9.2 mph - N/A   Scattered Clouds
5:04 PM 43.0 °F 36.8 °F 30.0 °F 60% 30.02 in 10.0 mi ENE 11.5 mph - N/A   Mostly Cloudy
5:15 PM 42.1 °F 35.7 °F 30.0 °F 62% 30.03 in 10.0 mi NE 11.5 mph - N/A   Scattered Clouds
5:52 PM 42.1 °F 35.7 °F 28.9 °F 60% 30.08 in 10.0 mi NE 11.5 mph - N/A   Partly Cloudy
6:52 PM 39.0 °F 34.0 °F 28.9 °F 67% 30.11 in 10.0 mi NE 6.9 mph - N/A   Scattered Clouds
7:52 PM 33.1 °F 24.4 °F 28.0 °F 82% 30.17 in 10.0 mi East 11.5 mph - N/A   Mostly Cloudy
8:18 PM 30.9 °F 22.8 °F 27.0 °F 85% 30.11 in 10.0 mi East 9.2 mph - N/A   Partly Cloudy
8:52 PM 30.0 °F 23.2 °F 27.0 °F 88% 30.20 in 9.0 mi East 6.9 mph - N/A   Clear
9:38 PM 30.0 °F 24.1 °F 27.0 °F 88% 30.16 in 8.0 mi East 5.8 mph - N/A   Mostly Cloudy
9:52 PM 30.9 °F 23.5 °F 27.0 °F 85% 30.23 in 9.0 mi East 8.1 mph - N/A   Overcast
10:52 PM 30.0 °F 21.7 °F 26.1 °F 85% 30.24 in 10.0 mi East 9.2 mph - N/A   Overcast
11:52 PM 30.0 °F 23.2 °F 25.0 °F 82% 30.25 in 10.0 mi ESE 6.9 mph - N/A   Overcast